Home > Weather > Peoria > Past weeks

Flag for USA Past Weather in Peoria, Illinois, USA — Yesterday and Last 2 Weeks

Now
74 °F

Passing clouds.


Feels Like: 73 °F
Forecast: 74 / 89 °F
Wind: 9 mph from Southwest

Location: Greater Peoria Regional Airport

Current Time: Jun 26, 2016 at 7:03:28 AM

Latest Report: Jun 26, 2016 at 5:54 AM


Visibility: 10 mi

Pressure: 29.99 "Hg

Humidity: 88%

Dew Point: 70 °F

Location of PeoriaLocation

Past Weather in Peoria — Graph

°F

Peoria Temperature Yesterday

Maximum temperature yesterday: 91 °F (at 2:54 PM)
Minimum temperature yesterday: 71 °F (at 5:54 AM)
Average temperature yesterday: 82 °F

High & Low Weather Summary for the Past Weeks

 TemperatureHumidityPressure
High96 °F (Jun 15, 3:54 PM)96% (Jun 22, 5:54 AM)30.22 "Hg (Jun 22, 5:54 AM)
Low63 °F (Jun 18, 4:54 AM)22% (Jun 18, 2:54 PM)29.70 "Hg (Jun 22, 8:54 PM)
Average79 °F61%29.97 "Hg
* Reported Jun 11 4:54 AM — Jun 26 4:54 AM, Peoria, Weather by CustomWeather, © 2016

Note: Actual official high and low records may vary slightly from our data, if they occured in-between our weather recording intervals... More about our weather records

Advertising

Peoria Weather History for the Previous 24 Hours

Scroll right to see more
 ConditionsComfort  
Time TempWeatherWind HumidityBarometerVisibility
4:54 AM
Sun, Jun 26
74 °FClear.10 mph88%29.97 "Hg10 mi
3:54 AM74 °FClear.9 mph88%29.96 "Hg10 mi
2:54 AM75 °FClear.7 mph82%29.96 "Hg10 mi
1:54 AM76 °FClear.7 mph80%29.95 "Hg10 mi
12:54 AM77 °FClear.9 mph77%29.97 "Hg10 mi
11:54 PM
Sat, Jun 25
79 °FClear.10 mph77%29.99 "Hg10 mi
10:54 PM80 °FClear.6 mph76%29.98 "Hg10 mi
9:54 PM83 °FClear.8 mph70%29.98 "Hg10 mi
8:54 PM85 °FSunny.8 mph65%29.95 "Hg10 mi
7:54 PM88 °FSunny.8 mph57%29.95 "Hg10 mi
6:54 PM90 °FSunny.10 mph54%29.97 "Hg10 mi
5:54 PM91 °FSunny.10 mph52%29.96 "Hg10 mi
4:54 PM91 °FSunny.13 mph52%29.97 "Hg10 mi
3:54 PM91 °FSunny.15 mph52%29.98 "Hg10 mi
2:54 PM91 °FSunny.16 mph50%29.99 "Hg10 mi
1:54 PM90 °FSunny.13 mph56%30.00 "Hg10 mi
12:54 PM89 °FSunny.14 mph55%30.02 "Hg10 mi
11:54 AM87 °FSunny.12 mph57%30.03 "Hg10 mi
10:54 AM85 °FSunny.10 mph59%30.04 "Hg10 mi
9:54 AM83 °FSunny.10 mph61%30.06 "Hg10 mi
8:54 AM80 °FSunny.9 mph64%30.06 "Hg10 mi
7:54 AM77 °FSunny.5 mph71%30.05 "Hg10 mi
Weather by CustomWeather, © 2016

See weather overviewHow to use our weather pages